| time (UTC) | temp C | wind direction | speed KPH | gust KPH | rain 1hr cm | rain 24hr cm | rain mn cm | humidity % | barometer mb |
| 20260505111542 | 13 | 0.0 | 0.0 | 0.00 | 0.00 | 0.00 | 80 | 1010.9 | |
| 20260505101544 | 12 | 0.0 | 0.0 | 0.00 | 0.00 | 0.00 | 77 | 1010.3 | |
| 20260505100043 | 13 | 0.0 | 0.0 | 0.00 | 0.00 | 0.00 | 76 | 1010.2 | |
| 20260505094540 | 13 | 0.0 | 0.0 | 0.00 | 0.00 | 0.00 | 74 | 1010.1 | |
| 20260505093040 | 13 | 0.0 | 0.0 | 0.00 | 0.00 | 0.00 | 75 | 1010.0 | |
| 20260505091537 | 13 | 0.0 | 0.0 | 0.00 | 0.00 | 0.00 | 74 | 1010.1 | |
| 20260505090047 | 13 | 0.0 | 0.0 | 0.00 | 0.00 | 0.00 | 75 | 1009.9 | |
| 20260505084548 | 13 | 0.0 | 0.0 | 0.00 | 0.00 | 0.00 | 73 | 1009.9 | |
| 20260505083041 | 13 | 0.0 | 0.0 | 0.00 | 0.00 | 0.00 | 73 | 1009.9 | |
| 20260505081537 | 14 | 0.0 | 0.0 | 0.00 | 0.00 | 0.00 | 72 | 1009.8 | |
| 20260505080037 | 13 | 0.0 | 0.0 | 0.00 | 0.00 | 0.00 | 74 | 1009.9 | |
| 20260505074544 | 13 | 0.0 | 0.0 | 0.00 | 0.00 | 0.00 | 75 | 1009.9 | |
| 20260505073046 | 13 | 0.0 | 0.0 | 0.00 | 0.00 | 0.00 | 73 | 1009.6 | |
| 20260505071541 | 15 | 0.0 | 0.0 | 0.00 | 0.00 | 0.00 | 70 | 1009.6 | |
| 20260505070050 | 15 | 0.0 | 0.0 | 0.00 | 0.00 | 0.00 | 70 | 1009.7 | |
| 20260505064544 | 15 | 0.0 | 0.0 | 0.00 | 0.00 | 0.00 | 69 | 1009.8 | |
| 20260505063052 | 15 | 0.0 | 0.0 | 0.00 | 0.00 | 0.00 | 69 | 1010.0 | |
| 20260505061544 | 15 | 0.0 | 0.0 | 0.00 | 0.00 | 0.00 | 69 | 1010.1 | |
| 20260505060044 | 15 | 0.0 | 0.0 | 0.00 | 0.00 | 0.00 | 68 | 1010.0 | |
| 20260505054542 | 15 | 0.0 | 0.0 | 0.00 | 0.00 | 0.00 | 69 | 1010.1 | |
| 20260505053055 | 14 | 0.0 | 0.0 | 0.00 | 0.00 | 0.00 | 70 | 1010.0 | |
| 20260505051542 | 14 | 0.0 | 0.0 | 0.00 | 0.00 | 0.00 | 69 | 1010.0 | |
| 20260505041550 | 15 | 0.0 | 0.0 | 0.00 | 0.00 | 0.00 | 65 | 1009.8 | |
| 20260505040053 | 15 | 0.0 | 0.0 | 0.00 | 0.00 | 0.00 | 65 | 1010.0 | |
| 20260505034542 | 15 | 0.0 | 0.0 | 0.00 | 0.00 | 0.00 | 65 | 1009.7 | |
| 20260505033042 | 15 | 0.0 | 0.0 | 0.00 | 0.00 | 0.00 | 64 | 1009.7 | |
| 20260505031548 | 15 | 0.0 | 0.0 | 0.00 | 0.00 | 0.00 | 64 | 1009.7 | |
| 20260505030041 | 15 | 0.0 | 0.0 | 0.00 | 0.00 | 0.00 | 64 | 1009.6 | |
| 20260505024547 | 15 | 0.0 | 0.0 | 0.00 | 0.00 | 0.00 | 63 | 1009.6 | |
| 20260505023038 | 16 | 0.0 | 0.0 | 0.00 | 0.00 | 0.00 | 61 | 1009.8 | |
| 20260505021541 | 16 | 0.0 | 0.0 | 0.00 | 0.00 | 0.00 | 60 | 1009.9 | |
| 20260505020041 | 16 | 0.0 | 0.0 | 0.00 | 0.00 | 0.00 | 60 | 1009.9 | |
| 20260505014600 | 15 | 0.0 | 0.0 | 0.00 | 0.00 | 0.00 | 61 | 1009.9 | |
| 20260505013038 | 15 | 0.0 | 0.0 | 0.00 | 0.00 | 0.00 | 62 | 1010.1 | |
| 20260505011554 | 16 | 0.0 | 0.0 | 0.00 | 0.00 | 0.00 | 60 | 1009.9 | |
| 20260505010043 | 16 | 0.0 | 0.0 | 0.00 | 0.00 | 0.00 | 59 | 1009.6 | |
| 20260505004543 | 16 | 0.0 | 0.0 | 0.00 | 0.00 | 0.00 | 58 | 1009.6 | |
| 20260505003040 | 17 | 0.0 | 0.0 | 0.00 | 0.00 | 0.00 | 57 | 1009.6 | |
| 20260505001542 | 17 | 0.0 | 0.0 | 0.00 | 0.00 | 0.00 | 56 | 1009.4 | |
| 20260505000053 | 18 | 0.0 | 0.0 | 0.00 | 0.00 | 0.00 | 54 | 1009.2 | |
| 20260504234545 | 18 | 0.0 | 0.0 | 0.00 | 0.00 | 0.00 | 53 | 1009.2 | |
| 20260504233101 | 19 | 0.0 | 0.0 | 0.00 | 0.00 | 0.00 | 52 | 1009.1 | |
| 20260504231544 | 20 | 0.0 | 0.0 | 0.00 | 0.00 | 0.00 | 50 | 1009.1 | |
| 20260504230041 | 21 | 0.0 | 0.0 | 0.00 | 0.00 | 0.00 | 45 | 1009.0 | |
| 20260504224542 | 21 | 0.0 | 0.0 | 0.00 | 0.00 | 0.00 | 45 | 1009.0 | |
| 20260504223054 | 21 | 0.0 | 0.0 | 0.00 | 0.00 | 0.00 | 43 | 1009.1 | |
| 20260504221544 | 21 | 0.0 | 0.0 | 0.00 | 0.00 | 0.00 | 44 | 1009.0 | |
| 20260504220043 | 22 | 0.0 | 0.0 | 0.00 | 0.00 | 0.00 | 45 | 1009.0 | |
| 20260504214537 | 22 | 0.0 | 0.0 | 0.00 | 0.00 | 0.00 | 42 | 1009.1 | |
| 20260504213053 | 22 | 0.0 | 0.0 | 0.00 | 0.00 | 0.00 | 42 | 1009.1 | |
| 20260504211540 | 22 | 0.0 | 0.0 | 0.00 | 0.00 | 0.00 | 42 | 1009.1 | |
| 20260504210040 | 22 | 0.0 | 0.0 | 0.00 | 0.00 | 0.00 | 41 | 1009.2 | |
| 20260504204547 | 22 | 0.0 | 0.0 | 0.00 | 0.00 | 0.00 | 41 | 1009.2 | |
| 20260504203058 | 21 | 0.0 | 0.0 | 0.00 | 0.00 | 0.00 | 43 | 1009.5 | |
| 20260504201542 | 22 | 0.0 | 0.0 | 0.00 | 0.00 | 0.00 | 43 | 1009.7 | |
| 20260504200043 | 22 | 0.0 | 0.0 | 0.00 | 0.00 | 0.00 | 46 | 1009.7 | |
| 20260504194541 | 21 | 0.0 | 0.0 | 0.00 | 0.00 | 0.00 | 43 | 1010.1 | |
| 20260504193041 | 21 | 0.0 | 0.0 | 0.00 | 0.00 | 0.00 | 43 | 1010.2 | |
| 20260504191536 | 21 | 0.0 | 0.0 | 0.00 | 0.00 | 0.00 | 44 | 1010.4 | |
| 20260504190047 | 21 | 0.0 | 0.0 | 0.00 | 0.00 | 0.00 | 43 | 1010.5 | |
| 20260504184543 | 21 | 0.0 | 0.0 | 0.00 | 0.00 | 0.00 | 44 | 1010.9 | |
| 20260504183040 | 21 | 0.0 | 0.0 | 0.00 | 0.00 | 0.00 | 44 | 1011.0 | |
| 20260504181546 | 20 | 0.0 | 0.0 | 0.00 | 0.00 | 0.00 | 44 | 1011.1 | |
| 20260504180037 | 20 | 0.0 | 0.0 | 0.00 | 0.00 | 0.00 | 44 | 1011.4 | |
| 20260504174536 | 20 | 0.0 | 0.0 | 0.00 | 0.00 | 0.00 | 45 | 1011.3 | |
| 20260504173042 | 20 | 0.0 | 0.0 | 0.00 | 0.00 | 0.00 | 44 | 1011.6 | |
| 20260504171547 | 19 | 0.0 | 0.0 | 0.00 | 0.00 | 0.00 | 45 | 1011.9 |